View from above orbital plane
|
View from above satellite
|
Ground track
|
The orbit data is extracted from the following two-line orbital elements,
1 17973U 87041A 21112.41085581 .00000027 00000-0 39554-4 0 9995
2 17973 70.8984 191.8575 0031318 181.2419 178.8630 14.14111000751798
Epoch (UTC): | 22 April 2021 09:51:37 |
Eccentricity: | 0.0031318 |
inclination: | 70.8984° |
perigee height: | 823 km |
apogee height: | 868 km |
right ascension of ascending node: | 191.8575° |
argument of perigee: | 181.2419° |
revolutions per day: | 14.14111000 |
mean anomaly at epoch: | 178.8630° |
orbit number at epoch: | 75179 |
The dashed part of the orbit path shows where the satellite is in the earth's shadow,
|
|